Time,B instrument,Bx,By,Bz,sigma B,Ion instrument,Status,Tp_par,Tp_perp,carrot,r_sun,clat,clong,earth_he_angle,n_p,vp_x,vp_y,vp_z,vth_p_par,vth_p_perp
1984-07-18 00:03:34,-1,nan,nan,nan,nan,1,3,nan,nan,1751,0.37711436,-6.2239065,255.56274,260.88696,nan,594.249,-35.673,-60.0676,nan,nan
1984-07-18 00:46:46,-1,nan,nan,nan,nan,1,3,nan,nan,1751,0.37677133,-6.2147551,255.27808,261.00073,nan,645.552,-66.708,-14.1203,nan,nan
1984-07-18 01:29:58,-1,nan,nan,nan,nan,1,3,nan,nan,1751,0.37642872,-6.2055531,254.99756,261.11475,nan,670.858,-6.42406,-7.18272,nan,nan
1984-07-18 02:13:10,-1,nan,nan,nan,nan,1,3,nan,nan,1751,0.37607855,-6.1960878,254.71582,261.23145,nan,678.455,8.96843,4.73065,nan,nan
1984-07-18 02:56:22,-1,nan,nan,nan,nan,1,3,nan,nan,1751,0.37573683,-6.1867857,254.43164,261.3457,nan,841.793,-177.793,-151.23,nan,nan
1984-07-18 03:39:34,-1,nan,nan,nan,nan,1,3,nan,nan,1751,0.37539566,-6.177412,254.15186,261.46045,nan,655.923,-33.5462,-20.3416,nan,nan
1984-07-18 04:22:46,-1,nan,nan,nan,nan,1,3,nan,nan,1751,0.3750549,-6.1679907,253.86841,261.57544,nan,670.194,-50.4687,61.7457,nan,nan
1984-07-18 05:05:58,-1,nan,nan,nan,nan,1,3,nan,nan,1751,0.37471461,-6.1585217,253.58936,261.69092,nan,652.373,-47.9044,9.00005,nan,nan
1984-07-18 05:49:10,-1,nan,nan,nan,nan,1,3,nan,nan,1751,0.374367,-6.1487627,253.30908,261.80908,nan,702.813,58.0571,18.9169,nan,nan
1984-07-18 06:32:22,-1,nan,nan,nan,nan,1,3,nan,nan,1751,0.37402773,-6.1391659,253.02637,261.9248,nan,638.943,-1.65824,-26.9891,nan,nan
1984-07-18 07:15:34,-1,nan,nan,nan,nan,1,3,nan,nan,1751,0.37368894,-6.1295223,252.7478,262.04077,nan,677.987,-110.649,-64.6881,nan,nan
1984-07-18 07:58:46,-1,nan,nan,nan,nan,1,4,nan,nan,1751,0.37335056,-6.1198282,252.46533,262.15674,nan,nan,nan,nan,nan,nan
1984-07-18 08:41:58,-1,nan,nan,nan,nan,1,3,nan,nan,1751,0.37301284,-6.1100588,252.18359,262.27344,nan,825.964,92.0861,32.6099,nan,nan
1984-07-18 09:25:10,-1,nan,nan,nan,nan,1,3,nan,nan,1751,0.37266767,-6.1000118,251.90869,262.39307,nan,655.073,17.9068,-47.1272,nan,nan
1984-07-18 10:08:22,-1,nan,nan,nan,nan,1,3,nan,nan,1751,0.37233084,-6.0901432,251.6272,262.51001,nan,645.734,-34.7573,-72.3549,nan,nan
1984-07-18 10:51:34,-1,nan,nan,nan,nan,1,3,nan,nan,1751,0.37199455,-6.0802088,251.34619,262.62744,nan,622.933,-5.69358,94.4703,nan,nan
1984-07-18 15:10:05,-1,nan,nan,nan,nan,1,3,nan,nan,1751,0.36997986,-6.0191622,249.68335,263.3396,nan,620.676,-76.2325,-38.5186,nan,nan
1984-07-18 15:10:46,-1,nan,nan,nan,nan,1,3,nan,nan,1751,0.3699798,-6.0191612,249.67554,263.3396,nan,606.707,3.73554,30.3663,nan,nan
1984-07-18 15:11:26,1,-47.4727,4.89091,4.41818,3.86084,1,1,218106.0,745695.0,1751,0.36997211,-6.0189209,249.67432,263.34229,26.3381,603.273,6.16841,-6.60189,60.0056,110.953
1984-07-18 15:12:07,1,-46.419,11.9952,0.857143,4.35033,1,1,171865.0,724080.0,1751,0.36996436,-6.0186806,249.66943,263.34521,25.2432,596.129,-0.317158,24.9477,53.2662,109.333
1984-07-18 15:12:44,1,-48.01,3.625,5.61,3.03392,1,1,158168.0,642429.0,1751,0.36996436,-6.0186806,249.66553,263.34521,23.7546,582.133,-20.977,11.547,51.0996,102.984
1984-07-18 15:13:24,1,-49.0583,3.5,3.79167,3.92342,1,1,171939.0,688103.0,1751,0.36995661,-6.0184402,249.6604,263.3479,24.6514,590.899,5.86181,25.1604,53.2776,106.582
1984-07-18 15:14:05,1,-47.6167,10.7667,2.75556,2.9228,1,1,177387.0,672069.0,1751,0.36994886,-6.0181999,249.65918,263.35059,24.3595,592.7,18.1608,-6.62465,54.1151,105.333
1984-07-18 15:14:45,1,-48.86,8.66,-0.16,2.30634,1,1,187855.0,627593.0,1751,0.36994886,-6.0181999,249.65137,263.35059,24.4377,579.218,-41.9317,-22.4457,55.689,101.788
1984-07-18 15:15:26,1,-49.1,-1.8,-1.0,0.0,1,1,220644.0,654988.0,1751,0.36994117,-6.0179596,249.64648,263.35352,25.7777,589.93,3.67327,-4.65018,60.3537,103.986
1984-07-18 15:16:06,1,-49.2,4.1,-1.3,4.84768,1,1,193650.0,712857.0,1751,0.36993343,-6.0177193,249.64526,263.3562,24.6264,593.284,-28.4984,-19.6466,56.5415,108.482
1984-07-18 15:16:47,-1,nan,nan,nan,nan,1,4,nan,nan,1751,0.36993343,-6.0177193,249.63745,263.3562,nan,nan,nan,nan,nan,nan
1984-07-18 15:17:27,1,-49.6833,3.28333,-1.13333,1.3994,1,1,232376.0,716493.0,1751,0.36992568,-6.0174789,249.63623,263.35889,26.1671,602.385,11.7081,9.52197,61.9375,108.759
1984-07-18 15:18:08,1,-48.8727,7.73636,-0.490909,2.34824,1,1,192906.0,734191.0,1751,0.36991793,-6.0172386,249.63135,263.36182,26.1202,590.708,-24.0593,0.0905894,56.4327,110.094
1984-07-18 15:19:29,1,-49.28,3.68,1.42,1.87638,1,1,220757.0,700556.0,1751,0.36991018,-6.0169983,249.62231,263.3645,26.0535,594.961,-13.0164,-4.86766,60.3691,107.542
1984-07-18 15:20:09,1,-49.3846,5.80769,-0.653846,2.44789,1,1,170409.0,636608.0,1751,0.36990249,-6.016758,249.61743,263.36743,23.3918,586.2,-10.526,-19.424,53.0401,102.517
1984-07-18 15:20:50,1,-49.3,6.9,2.1,0.0,1,1,190727.0,661601.0,1751,0.36990243,-6.016757,249.61353,263.36743,25.9898,585.743,-12.4819,-41.4287,56.113,104.51
1984-07-18 15:21:30,-1,nan,nan,nan,nan,1,3,nan,nan,1751,0.36989474,-6.0165167,249.6084,263.37012,nan,576.017,-12.604,16.0818,nan,nan
1984-07-18 15:22:11,1,-49.1692,5.11538,2.3,1.6353,1,1,174726.0,671874.0,1751,0.36988699,-6.0162764,249.60327,263.3728,25.663,583.392,-17.5722,17.2912,53.7077,105.318
1984-07-18 15:22:51,1,-48.5556,5.32778,3.31667,2.51336,1,1,170350.0,599184.0,1751,0.36988699,-6.0162764,249.59937,263.3728,23.6336,582.438,-4.705,-20.9791,53.0309,99.4576
1984-07-18 15:23:32,1,-48.6,9.23333,-0.266667,1.38243,1,1,176571.0,600848.0,1751,0.36987925,-6.016036,249.59448,263.37573,23.3173,589.583,16.2479,-31.5477,53.9905,99.5956
1984-07-18 15:24:12,1,-48.35,10.6,-2.9,0.801561,1,1,158802.0,652607.0,1751,0.3698715,-6.0157957,249.59326,263.37842,23.6765,595.378,21.0953,-33.5356,51.2019,103.797
1984-07-18 15:24:53,1,-47.5857,11.3571,1.68571,2.69323,1,1,166639.0,671481.0,1751,0.3698715,-6.0157957,249.58545,263.37842,24.5863,589.714,0.492887,10.2635,52.45,105.287
1984-07-18 15:25:33,1,-47.8312,10.925,1.05,3.31214,1,1,167284.0,628243.0,1751,0.36986375,-6.0155554,249.58423,263.3811,24.9063,590.846,14.8493,21.5889,52.5515,101.841
1984-07-18 15:26:14,1,-47.9762,9.04286,2.97143,2.78099,1,1,176767.0,638895.0,1751,0.36985606,-6.0153151,249.57935,263.38403,24.109,585.735,-7.86824,-3.06829,54.0204,102.701
1984-07-18 15:26:54,1,-48.975,7.025,1.8375,1.87446,1,1,187825.0,661283.0,1751,0.36985606,-6.0153151,249.57153,263.38403,25.1276,590.999,4.81676,-22.4797,55.6845,104.484
1984-07-18 15:27:35,1,-48.7,10.55,-1.3,0.743303,1,1,182260.0,646572.0,1751,0.36984831,-6.0150747,249.57031,263.38672,24.1292,593.118,9.83113,-33.0214,54.8534,103.316
1984-07-18 15:28:15,-1,nan,nan,nan,nan,1,3,nan,nan,1751,0.36984056,-6.0148344,249.56519,263.3894,nan,588.672,14.2866,-17.5909,nan,nan
1984-07-18 15:28:56,-1,nan,nan,nan,nan,1,3,nan,nan,1751,0.36984056,-6.0148344,249.56128,263.3894,nan,595.632,13.9467,-32.3036,nan,nan
1984-07-18 15:29:36,-1,nan,nan,nan,nan,1,3,nan,nan,1751,0.36983281,-6.0145941,249.5564,263.39233,nan,583.073,1.1414,-25.3802,nan,nan
1984-07-18 15:30:17,-1,nan,nan,nan,nan,1,3,nan,nan,1751,0.36982512,-6.0143528,249.55127,263.39502,nan,588.851,-3.85375,-16.2585,nan,nan
1984-07-18 15:30:57,-1,nan,nan,nan,nan,1,3,nan,nan,1751,0.36982507,-6.0143528,249.54736,263.39502,nan,586.265,-8.1466,-23.4434,nan,nan
1984-07-18 15:31:38,-1,nan,nan,nan,nan,1,3,nan,nan,1751,0.36981738,-6.0141125,249.54224,263.39771,nan,591.691,14.0449,-16.1293,nan,nan
1984-07-18 15:32:18,-1,nan,nan,nan,nan,1,3,nan,nan,1751,0.36980963,-6.0138721,249.54126,263.40063,nan,587.481,14.2631,2.41078,nan,nan
1984-07-18 15:32:59,1,-48.0,13.4,-3.6,0.0,1,1,134977.0,579061.0,1751,0.36980963,-6.0138721,249.53345,263.40063,22.8181,591.226,27.2854,-14.8346,47.205,97.7733
1984-07-18 15:33:39,1,-47.4333,14.0667,-1.26667,2.39722,1,1,196839.0,636861.0,1751,0.36980188,-6.0136318,249.52832,263.40332,24.2423,608.075,30.7775,-52.1219,57.005,102.537
1984-07-18 15:34:20,1,-46.4,17.2,-4.0,0.0,1,1,223067.0,689585.0,1751,0.36979413,-6.0133915,249.5271,263.40601,27.0809,613.487,38.4659,-47.8403,60.6843,106.697
1984-07-18 15:35:00,1,-36.5,3.64,4.86,23.6831,1,1,197446.0,607678.0,1751,0.36978644,-6.0131512,249.52222,263.40894,27.266,603.491,-47.3017,75.2398,57.0929,100.16
1984-07-18 15:35:41,1,-39.3381,-6.79048,19.3905,5.6783,1,1,176698.0,607717.0,1751,0.36978638,-6.0131512,249.51831,263.40894,24.9966,615.557,-36.7357,78.3911,54.01,100.163
1984-07-18 15:36:21,1,-39.1364,-2.68182,20.95,3.47104,1,1,196955.0,584277.0,1751,0.36977869,-6.0129108,249.51318,263.41162,23.6942,631.567,-83.3322,92.8934,57.0219,98.2126
1984-07-18 15:37:02,1,-38.2091,-3.32273,20.7818,8.71537,1,1,190702.0,624712.0,1751,0.36977094,-6.0126705,249.50806,263.41431,24.8816,608.527,-88.965,48.9668,56.1094,101.554
1984-07-18 15:37:42,1,-39.9955,-8.24545,19.5682,3.79217,1,1,170620.0,572259.0,1751,0.36977094,-6.0126705,249.50415,263.41431,23.9047,610.242,-36.2589,70.9307,53.073,97.1973
1984-07-18 15:38:23,1,-39.9429,-2.9381,20.8286,5.08875,1,1,161714.0,625905.0,1751,0.3697632,-6.0124302,249.49927,263.41724,25.3272,614.409,-44.211,75.2741,51.6692,101.651
1984-07-18 15:39:03,1,-41.8045,-1.07727,18.6455,5.61582,1,1,173052.0,626835.0,1751,0.36975545,-6.0121899,249.49805,263.41992,26.9139,613.638,-22.8936,67.5383,53.4498,101.727
1984-07-18 15:39:47,1,-40.4545,-0.631818,20.4955,3.88863,1,1,210126.0,791566.0,1751,0.36975545,-6.0121889,249.49023,263.41992,22.2784,682.497,-64.5875,165.824,58.8977,114.315
1984-07-18 15:40:28,-1,nan,nan,nan,nan,1,4,nan,nan,1751,0.36974776,-6.0119486,249.48535,263.42285,nan,nan,nan,nan,nan,nan
1984-07-18 15:41:08,1,-46.6579,6.5,9.90526,4.11042,1,1,187370.0,559840.0,1751,0.36974001,-6.0117083,249.48413,263.42554,23.718,620.534,27.3289,65.2492,55.617,96.1369
1984-07-18 15:41:49,1,-44.4889,14.7333,9.47778,5.15757,1,1,153573.0,581722.0,1751,0.36974001,-6.0117083,249.47632,263.42554,22.2495,599.658,31.1922,11.9433,50.3518,97.9976
1984-07-18 15:42:26,1,-45.3083,16.575,5.96667,4.77527,1,1,159012.0,616274.0,1751,0.36973226,-6.0114679,249.4751,263.42822,22.7811,583.339,-18.2376,32.4427,51.2357,100.866
1984-07-18 15:43:06,1,-48.2333,7.03333,5.46667,6.40885,1,1,163825.0,596553.0,1751,0.36972451,-6.0112276,249.47021,263.43115,24.9507,589.064,-1.58901,7.16521,52.0054,99.239
1984-07-18 15:43:47,-1,nan,nan,nan,nan,1,3,nan,nan,1751,0.36972451,-6.0112276,249.46631,263.43115,nan,592.312,-8.46673,0.0468165,nan,nan
1984-07-18 15:44:27,-1,nan,nan,nan,nan,1,3,nan,nan,1751,0.36971676,-6.0109873,249.46118,263.43384,nan,586.746,-6.02038,0.6938,nan,nan
1984-07-18 15:45:08,1,-49.45,4.8,3.5,1.42215,1,1,165924.0,591244.0,1751,0.36970907,-6.010747,249.45605,263.43652,25.9899,593.344,6.20556,26.3365,52.3374,98.7964
1984-07-18 15:45:48,1,-47.48,6.32667,9.38,2.75823,1,1,169503.0,595633.0,1751,0.36970901,-6.010747,249.45215,263.43652,26.0574,585.943,-25.6292,17.9181,52.8988,99.1625
1984-07-18 15:46:29,1,-47.5429,2.1,10.5,3.25833,1,1,207541.0,559426.0,1751,0.36970133,-6.0105066,249.44727,263.43945,24.8605,589.452,-15.4039,-23.6012,58.5342,96.1013
1984-07-18 15:47:09,-1,nan,nan,nan,nan,1,3,nan,nan,1751,0.36969358,-6.0102663,249.44604,263.44214,nan,585.651,-43.8085,-15.5179,nan,nan
1984-07-18 15:47:50,-1,nan,nan,nan,nan,1,3,nan,nan,1751,0.36969358,-6.0102663,249.43823,263.44214,nan,588.961,-30.7233,-19.2874,nan,nan
1984-07-18 15:48:30,1,-47.0714,3.82857,10.2857,2.76656,1,1,144876.0,610677.0,1751,0.36968583,-6.010026,249.43701,263.44482,24.3998,586.325,-12.4338,25.2973,48.9053,100.407
1984-07-18 15:49:11,1,-48.0125,3.84375,8.475,2.868,1,1,179267.0,630771.0,1751,0.36967808,-6.0097857,249.43213,263.44775,25.8812,585.52,-5.21799,0.502851,54.4011,102.045
1984-07-18 15:49:51,1,-49.2667,3.9,6.03333,1.52133,1,1,184363.0,639629.0,1751,0.36967808,-6.0097847,249.42432,263.44775,25.9374,598.616,37.4993,4.92952,55.169,102.759
1984-07-18 15:50:32,1,-45.0143,17.0,7.37143,3.51492,1,1,163782.0,586435.0,1751,0.36967033,-6.0095444,249.4231,263.45044,21.3702,610.382,28.7984,94.398,51.9984,98.3938
1984-07-18 15:51:53,1,-42.5476,10.6048,15.7048,4.58617,1,1,180258.0,528867.0,1751,0.36966264,-6.009304,249.41406,263.45313,20.1656,603.529,46.7536,65.9269,54.5513,93.4396
1984-07-18 15:52:33,1,-45.0875,17.8125,5.3625,4.33844,1,1,201193.0,625042.0,1751,0.36965489,-6.0090637,249.40918,263.45605,27.0157,583.345,27.5433,-34.1236,57.6321,101.581
1984-07-18 15:53:14,1,-48.2,8.65,6.55,0.484768,1,1,159065.0,561704.0,1751,0.36964715,-6.0088234,249.40405,263.45874,22.792,578.882,-2.91395,10.4103,51.2442,96.2968
1984-07-18 15:53:54,-1,nan,nan,nan,nan,1,3,nan,nan,1751,0.36964715,-6.0088234,249.40015,263.45874,nan,585.278,4.59952,-10.8122,nan,nan
1984-07-18 15:54:35,-1,nan,nan,nan,nan,1,3,nan,nan,1751,0.3696394,-6.0085831,249.39502,263.46143,nan,582.145,-4.59209,10.3058,nan,nan
1984-07-18 15:55:15,-1,nan,nan,nan,nan,1,3,nan,nan,1751,0.36963171,-6.0083427,249.39404,263.46436,nan,587.194,-0.596869,39.5651,nan,nan
1984-07-18 15:55:56,1,-45.4929,5.78571,13.5571,5.58813,1,1,151696.0,630955.0,1751,0.36963165,-6.0083427,249.38623,263.46436,25.7472,586.416,2.34788,36.4041,50.0432,102.06
1984-07-18 15:56:36,1,-46.5333,8.78571,10.7333,2.34012,1,1,158979.0,618276.0,1751,0.36962396,-6.0081024,249.3811,263.46704,25.1989,583.113,-2.79064,8.63215,51.2305,101.03
1984-07-18 15:57:17,1,-47.7,7.81333,7.81333,3.12426,1,1,208238.0,515165.0,1751,0.36961621,-6.0078621,249.37988,263.46973,19.4126,583.738,-13.4123,25.3206,58.6325,92.2212
1984-07-18 15:57:57,1,-48.53,2.32,8.06,5.04005,1,1,185958.0,633015.0,1751,0.36961621,-6.0078621,249.37207,263.46973,26.3642,588.689,-35.176,58.3032,55.4071,102.227
1984-07-18 15:58:38,1,-43.6524,-4.74762,17.3048,4.72276,1,1,151259.0,511401.0,1751,0.36960846,-6.0076218,249.37109,263.47266,17.8958,590.871,-63.6979,67.2022,49.971,91.8838
1984-07-18 15:59:18,1,-43.1095,-7.22381,15.5476,7.62424,1,1,219025.0,545145.0,1751,0.36960071,-6.0073814,249.36597,263.47534,23.4374,624.198,-136.209,47.4762,60.1318,94.8667
1984-07-18 15:59:59,1,-36.8429,-19.9333,18.3143,6.41644,1,1,184954.0,514315.0,1751,0.36960071,-6.0073805,249.35815,263.47534,17.7776,617.097,-94.2918,73.6207,55.2574,92.1451
1984-07-18 16:00:39,1,-39.6524,-14.7571,17.781,8.35486,1,1,180896.0,689094.0,1751,0.36959296,-6.0071402,249.35718,263.47827,26.6904,598.01,-72.1125,46.8722,54.6478,106.659
1984-07-18 16:01:20,1,-41.7952,-14.9571,15.381,3.78791,1,1,179698.0,602068.0,1751,0.36958528,-6.0068979,249.35205,263.48096,22.4918,612.866,-84.0369,81.7955,54.4665,99.6967
1984-07-18 16:02:00,1,-38.6364,-13.7955,19.8545,4.12947,1,1,169313.0,630547.0,1751,0.36957759,-6.0066557,249.35083,263.48364,24.8776,608.65,-89.6479,70.7291,52.8693,102.027
1984-07-18 16:02:41,1,-40.9286,-11.3095,15.4524,9.21343,1,1,174225.0,570563.0,1751,0.36957753,-6.0066557,249.34302,263.48364,23.1402,593.266,-73.6787,23.8787,53.6306,97.0532
1984-07-18 16:03:21,1,-45.5308,-4.29231,11.5231,8.47167,1,1,168771.0,633504.0,1751,0.36956984,-6.0064135,249.34204,263.48657,24.3668,592.508,-13.3783,50.8497,52.7846,102.266
1984-07-18 16:04:02,1,-45.18,4.725,12.095,4.47984,1,1,197940.0,550020.0,1751,0.36956209,-6.0061712,249.33691,263.48926,23.3471,587.47,-74.0041,38.7432,57.1642,95.29
1984-07-18 16:04:42,1,-45.915,-8.685,9.845,4.4671,1,1,156853.0,709397.0,1751,0.36956209,-6.0061712,249.3291,263.48926,26.534,585.994,-47.444,27.1001,50.8868,108.219
1984-07-18 16:26:19,-1,nan,nan,nan,nan,1,3,nan,nan,1751,0.36939228,-6.0008402,249.19507,263.55054,nan,580.062,-15.8581,-16.9592,nan,nan
1984-07-18 16:40:55,-1,nan,nan,nan,nan,1,3,nan,nan,1751,0.36928421,-5.997448,249.09741,263.5896,nan,579.046,-37.5539,62.5846,nan,nan
1984-07-18 16:41:35,1,-34.4,-2.7,26.1,0.0,1,1,255405.0,299313.0,1751,0.36927646,-5.9972057,249.09619,263.59229,10.7087,616.974,-159.505,36.8882,64.9341,70.2944
1984-07-18 16:42:16,-1,nan,nan,nan,nan,1,4,nan,nan,1751,0.36926877,-5.9969635,249.09106,263.59497,nan,nan,nan,nan,nan,nan
1984-07-18 16:42:56,1,-49.1333,-4.1,5.0,0.821922,1,1,142229.0,619377.0,1751,0.36926877,-5.9969635,249.08325,263.59497,21.0985,577.794,-60.018,33.1948,48.4564,101.12
1984-07-18 16:43:38,-1,nan,nan,nan,nan,1,4,nan,nan,1751,0.36926103,-5.9967213,249.08228,263.5979,nan,nan,nan,nan,nan,nan
1984-07-18 16:44:18,1,-39.7304,23.0217,7.14783,7.56027,1,1,190062.0,631261.0,1751,0.36925334,-5.996479,249.07715,263.60059,22.8766,617.812,65.1075,57.214,56.0151,102.085
1984-07-18 16:44:59,1,-36.9955,26.1864,6.05455,10.4989,1,1,309853.0,695924.0,1751,0.36925334,-5.996479,249.07324,263.60059,27.3896,649.477,76.7711,65.5132,71.5214,107.186
1984-07-18 16:45:39,-1,nan,nan,nan,nan,1,4,nan,nan,1751,0.36924559,-5.9962368,249.06836,263.60352,nan,nan,nan,nan,nan,nan
1984-07-18 16:46:20,1,-40.6,3.60952,15.1714,14.8906,1,1,322626.0,998119.0,1751,0.3692379,-5.9959946,249.06323,263.6062,43.5322,591.688,-133.856,29.388,72.9806,128.366
1984-07-18 16:47:00,1,-41.43,-18.835,10.76,7.58411,1,1,235048.0,462306.0,1751,0.36923015,-5.9957523,249.06201,263.60889,18.8419,635.26,-170.762,-13.8754,62.2926,87.3621
1984-07-18 16:47:41,1,-36.2727,-31.1773,-1.36364,6.52413,1,1,389952.0,603583.0,1751,0.36923015,-5.9957514,249.0542,263.60889,28.0164,677.365,-175.997,73.6752,80.235,99.822
1984-07-18 16:48:21,-1,nan,nan,nan,nan,1,4,nan,nan,1751,0.36922246,-5.9955091,249.05322,263.61182,nan,nan,nan,nan,nan,nan
1984-07-18 16:49:02,-1,nan,nan,nan,nan,1,4,nan,nan,1751,0.36921471,-5.9952669,249.0481,263.6145,nan,nan,nan,nan,nan,nan
1984-07-18 16:49:42,1,-47.76,-7.02,2.12,4.49951,1,1,230141.0,584479.0,1751,0.36921471,-5.9952669,249.04028,263.6145,23.3963,585.155,-29.7548,-45.4216,61.6388,98.2296
1984-07-18 16:50:23,1,-38.5,27.6,-8.6,0.0,1,1,162534.0,544832.0,1751,0.36920702,-5.9950247,249.03931,263.61743,20.7186,594.495,44.3929,-25.0381,51.8,94.8395
1984-07-18 16:53:05,1,-48.5727,-6.22727,3.48182,3.24458,1,1,140487.0,686655.0,1751,0.36918384,-5.994298,249.02417,263.62573,24.5745,575.562,-50.0507,13.2179,48.1589,106.47
1984-07-18 16:53:45,1,-48.3722,-5.97222,4.93333,2.77961,1,1,174687.0,594963.0,1751,0.36918384,-5.994298,249.01636,263.62573,22.295,586.709,-63.3161,56.7001,53.7017,99.1066
1984-07-18 16:54:26,1,-43.6833,-8.67222,11.0111,9.82547,1,1,62572.6,239331.0,1751,0.36917615,-5.9940557,249.01123,263.62842,2.66479,559.426,-59.1116,-41.9116,32.1403,62.8576
1984-07-18 16:55:47,1,-45.6133,-14.5867,7.52667,5.55256,1,1,257232.0,609177.0,1751,0.3691684,-5.9938135,249.00244,263.63135,22.0066,613.742,-152.648,7.81738,65.1659,100.284
1984-07-18 16:56:27,1,-41.9267,-23.74,3.9,7.19076,1,1,193780.0,738941.0,1751,0.36916071,-5.9935713,249.00122,263.63403,27.3867,601.343,-116.61,12.2763,56.5603,110.449
1984-07-18 16:57:08,1,-41.3412,-23.2059,8.22941,5.26613,1,1,282125.0,703903.0,1751,0.36915296,-5.993329,248.99609,263.63672,26.9128,634.331,-138.57,95.0672,68.2462,107.799
1984-07-18 16:57:48,1,-32.2739,-23.9435,19.6696,6.1987,1,1,194196.0,712094.0,1751,0.36915296,-5.993329,248.98828,263.63672,24.9482,640.68,-131.017,97.5262,56.621,108.424
1984-07-18 16:58:29,1,-30.413,-21.9957,22.7913,3.85731,1,1,204083.0,694971.0,1751,0.36914527,-5.9930868,248.9873,263.63965,23.1613,628.0,-111.159,99.2452,58.0445,107.113
1984-07-18 16:59:09,-1,nan,nan,nan,nan,1,4,nan,nan,1751,0.36913753,-5.9928446,248.98218,263.64233,nan,nan,nan,nan,nan,nan
1984-07-18 16:59:50,1,-42.545,-0.515,17.875,4.77112,1,1,230703.0,613511.0,1751,0.36913753,-5.9928436,248.97827,263.64233,23.6353,605.127,51.0083,51.0712,61.7141,100.64
1984-07-18 17:00:30,1,-42.6381,13.1476,13.1333,6.04313,1,1,298101.0,414488.0,1751,0.36912978,-5.9926014,248.97339,263.64526,18.0798,579.139,-96.224,-5.23536,70.1519,82.7206
1984-07-18 17:01:11,1,-46.3167,-1.55833,8.3,10.3069,1,1,182364.0,585206.0,1751,0.36912209,-5.9923573,248.96826,263.64795,22.3188,579.307,-5.17242,34.2539,54.8691,98.2907
1984-07-18 17:01:51,1,-44.3095,4.10476,13.6762,7.99251,1,1,304655.0,533054.0,1751,0.36912209,-5.9923573,248.96436,263.64795,22.9225,585.083,-100.495,25.2123,70.9189,93.8088
1984-07-18 17:02:32,1,-41.8125,-16.325,12.9187,6.89516,1,1,243261.0,610076.0,1751,0.3691144,-5.9921131,248.95923,263.65063,24.2952,590.665,-79.4413,-36.5156,63.3716,100.358
1984-07-18 17:03:12,1,-39.3,-29.4,-0.8,0.0,1,1,213889.0,690266.0,1751,0.36910671,-5.991869,248.95825,263.65356,26.4021,601.252,-116.307,-18.6975,59.4227,106.75
1984-07-18 17:03:53,-1,nan,nan,nan,nan,1,3,nan,nan,1751,0.36910671,-5.991869,248.95044,263.65356,nan,590.515,-77.061,-17.5998,nan,nan
1984-07-18 17:04:33,-1,nan,nan,nan,nan,1,3,nan,nan,1751,0.36909902,-5.9916248,248.94922,263.65625,nan,588.9,-73.9418,-0.543543,nan,nan
1984-07-18 17:05:14,-1,nan,nan,nan,nan,1,3,nan,nan,1751,0.36909127,-5.9913807,248.94434,263.65918,nan,586.54,-51.6385,1.15349,nan,nan
1984-07-18 17:06:35,-1,nan,nan,nan,nan,1,3,nan,nan,1751,0.36908358,-5.9911366,248.9353,263.66187,nan,590.996,19.9517,-6.37065,nan,nan
1984-07-18 17:07:15,1,-47.375,11.1875,6.9,3.34148,1,1,166569.0,708668.0,1751,0.36907589,-5.9908924,248.93018,263.66455,25.2326,588.326,-0.217089,34.8818,52.439,108.163
1984-07-18 17:09:31,-1,nan,nan,nan,nan,1,3,nan,nan,1751,0.36906046,-5.9904041,248.91626,263.67017,nan,576.517,-14.7666,8.01065,nan,nan
1984-07-18 17:52:43,-1,nan,nan,nan,nan,1,3,nan,nan,1751,0.36872923,-5.9799051,248.6377,263.79004,nan,601.191,43.0759,-22.6557,nan,nan
1984-07-18 18:35:55,-1,nan,nan,nan,nan,1,3,nan,nan,1751,0.36839867,-5.9693356,248.36353,263.9104,nan,614.56,64.7038,8.31903,nan,nan
1984-07-18 22:11:57,-1,nan,nan,nan,nan,1,3,nan,nan,1751,0.36674589,-5.915391,246.98682,264.51807,nan,667.252,27.2351,-33.3315,nan,nan
1984-07-18 22:55:09,-1,nan,nan,nan,nan,1,3,nan,nan,1751,0.36641091,-5.9042215,246.71313,264.64282,nan,696.775,-102.065,-94.5765,nan,nan
1984-07-18 23:38:21,-1,nan,nan,nan,nan,1,3,nan,nan,1751,0.36608422,-5.8932304,246.43677,264.76489,nan,641.371,-11.5293,-0.231823,nan,nan
